Location: Oberwangen
(47.4286°N, 8.9679°E)
Time: 19:02:47
(UTC+00:00)

Cosmos 1703 - Visible Passes

Search period start: 21 October 2021 00:00
Search period end: 31 October 2021 00:00
Orbit: 523 x 537 km, 82.5° (Epoch: 21 October)

Date Brightness Start Highest point End Pass type
(mag) Time Alt. Az. Time Alt. Az. Time Alt. Az.
21 Oct 3.2 17:12:00 10° N 17:15:55 70° E 17:19:48 10° SSE visible
21 Oct 6.9 18:50:45 10° WNW 18:51:19 10° W 18:51:53 10° W visible
22 Oct 3.2 17:01:34 10° N 17:05:29 65° ENE 17:09:20 10° SSE visible
22 Oct 6.9 18:39:49 10° WNW 18:40:55 11° W 18:42:01 10° W visible
23 Oct 6.2 05:22:26 10° SE 05:25:33 23° E 05:28:41 10° NE visible
23 Oct 3.3 16:51:09 10° N 16:55:03 61° E 16:58:53 10° SSE visible
23 Oct 6.8 18:29:05 10° WNW 18:30:31 12° W 18:31:56 10° WSW visible
24 Oct 6.3 05:12:06 10° SE 05:15:08 21° E 05:18:11 10° NE visible
24 Oct 6.8 18:18:24 10° WNW 18:20:06 13° W 18:21:47 10° WSW visible
25 Oct 6.4 05:01:48 10° SE 05:04:43 20° E 05:07:39 10° NE visible
25 Oct 6.7 18:07:46 10° NW 18:09:42 13° W 18:11:36 10° WSW visible
26 Oct 6.4 04:51:29 10° SE 04:54:18 19° E 04:57:07 10° NE visible
26 Oct 6.7 17:57:10 10° NW 17:59:16 14° W 18:01:22 10° WSW visible
27 Oct 6.5 04:41:11 10° SE 04:43:52 18° E 04:46:34 10° NE visible
27 Oct 6.6 17:46:34 10° NW 17:48:51 15° W 17:51:07 10° WSW visible
28 Oct 6.5 04:30:54 10° SE 04:33:27 17° E 04:36:01 10° NE visible
28 Oct 6.5 17:36:00 10° NW 17:38:25 16° W 17:40:50 10° SW visible
29 Oct 6.6 04:20:37 10° ESE 04:23:02 16° E 04:25:26 10° NE visible
29 Oct 6.5 17:25:26 10° NW 17:28:00 17° W 17:30:33 10° SW visible
30 Oct 6.6 04:10:21 10° ESE 04:12:36 15° E 04:14:51 10° NE visible
30 Oct 6.4 17:14:53 10° NW 17:17:34 18° W 17:20:15 10° SW visible
